Location: Arboucave
(43.6130°N, 0.4343°W)
Time: 04:55:14
(UTC+00:00)

Okean 1 Rocket - Pass Details

Date: 17 November 2025
Orbit: 599 x 628 km, 82.5° (Epoch: 04 December)

Event Time Altitude Azimuth Distance (km) Brightness Sun altitude
Rises 17:43:57 0° 157° (SSE) 2,890 6.4 -12.6°
Reaches altitude 10° 17:46:27 10° 144° (SE) 1,985 5.4 -13.0°
Maximum altitude 17:50:04 25° 89° (E) 1,244 4.0 -13.7°
Enters shadow 17:51:41 20° 56° (NE) 1,423 4.3 -13.9°
